Weather History for Valparaiso, FL

Change the Weather History Date:

Sunday, November 3, 2013

  Actual Average Record
Temperature  
Mean Temperature 58 °F -  
Max Temperature 70 °F 74 °F 86 °F (2001)
Min Temperature 46 °F 51 °F 23 °F (1954)
Degree Days  
Heating Degree Days 7    
Growing Degree Days 8 (Base 50)    
Moisture  
Dew Point 41 °F    
Average Humidity 57    
Maximum Humidity 83    
Minimum Humidity 31    
Precipitation  
Precipitation 0.00 in - - ()
Sea Level Pressure  
Sea Level Pressure 30.18 in    
Wind  
Wind Speed 8 mph (NNE)    
Max Wind Speed 14 mph    
Max Gust Speed 18 mph    
Visibility 10 miles    
Events      
Averages and records for this station are not official NWS values.
T = Trace of Precipitation, MM = Missing Value Source: NWS Daily Summary

Daily Weather History Graph

Daily Weather History Graph

Search for Another Location

Airport:

Trip Planner

Search our weather history database for the weather conditions in past years. The results will help you decide how hot, cold, wet, or windy it might be!

Date:

Astronomy

Nov. 03, 2013 Rise Set
Actual Time 6:02 AM CST 4:56 PM CST
Civil Twilight 5:37 AM CST 5:21 PM CST
Nautical Twilight 5:08 AM CST 5:49 PM CST
Astronomical Twilight 4:40 AM CST 6:18 PM CST
Moon 6:04 AM CST (11/3) 5:13 PM CST (11/3)
Length of Visible Light 11h 43m
Length of Day
10h 54m
Waxing Crescent, 0% of the Moon is Illuminated
Nov 3
Waxing Crescent
Nov 9
First Quarter
Nov 17
Full
Nov 25
Last Quarter
Dec 2
New

Hourly Weather History & Observations

Time (CST) Temp. Dew Point Humidity Pressure Visibility Wind Dir Wind Speed Gust Speed Precip Events Conditions
12:58 AM 55.0 °F 42.4 °F 63% 30.12 in 10.0 mi North 6.9 mph - N/A   Clear
1:55 AM 53.1 °F 42.3 °F 67% 30.14 in 10.0 mi North 8.1 mph - N/A   Clear
1:55 AM 51.8 °F 42.3 °F 70% 30.14 in 10.0 mi North 9.2 mph - N/A   Clear
2:55 AM 50.4 °F 42.3 °F 74% 30.14 in 10.0 mi North 9.2 mph - N/A   Clear
3:55 AM 48.2 °F 41.9 °F 79% 30.15 in 10.0 mi North 8.1 mph - N/A   Clear
4:55 AM 47.1 °F 41.9 °F 82% 30.17 in 10.0 mi North 9.2 mph - N/A   Clear
5:55 AM 46.9 °F 41.9 °F 83% 30.16 in 10.0 mi North 10.4 mph - N/A   Clear
10:55 AM 66.9 °F 39.2 °F 36% 30.22 in 10.0 mi NNE 12.7 mph - N/A   Clear
10:56 AM 66.9 °F 39.2 °F 36% 30.22 in 10.0 mi NNE 12.7 mph - N/A   Clear
11:55 AM 68.7 °F 38.8 °F 34% 30.19 in 10.0 mi NNE 13.8 mph 18.4 mph N/A   Clear
12:55 PM 69.3 °F 38.1 °F 32% 30.17 in 10.0 mi NE 11.5 mph 17.3 mph N/A   Clear
1:55 PM 70.2 °F 38.3 °F 31% 30.16 in 10.0 mi NE 11.5 mph 18.4 mph N/A   Clear
2:55 PM 69.3 °F 38.5 °F 32% 30.15 in 10.0 mi East 6.9 mph - N/A   Clear
3:55 PM 68.4 °F 37.4 °F 32% 30.17 in 10.0 mi East 9.2 mph - N/A   Clear
4:55 PM 64.9 °F 40.1 °F 40% 30.18 in 10.0 mi ENE 5.8 mph - N/A   Clear
5:55 PM 60.4 °F 43.3 °F 53% 30.19 in 10.0 mi NE 4.6 mph - N/A   Clear
6:55 PM 55.0 °F 43.9 °F 66% 30.20 in 10.0 mi NE 4.6 mph - N/A   Clear
7:55 PM 54.1 °F 43.7 °F 68% 30.22 in 10.0 mi NE 4.6 mph - N/A   Clear
8:55 PM 53.2 °F 43.3 °F 69% 30.23 in 10.0 mi ENE 4.6 mph - N/A   Clear
9:55 PM 50.5 °F 43.0 °F 75% 30.25 in 10.0 mi NE 5.8 mph - N/A   Clear
10:55 PM 49.6 °F 42.1 °F 75% 30.25 in 10.0 mi NNE 4.6 mph - N/A   Clear